Disclaimer

Please do not use the information listed here in-flight or in-navigation, as they are not provided to us by the airports but are provided by volunteers, so they might be outdated.

Search


Regions


Airport information page

No radio frequency information is available.

Airport informations:
Latitude: 51° 39' 23.00" N
Longitude: 005° 42' 31.00" E
Elevation: 72 feet - 22 meters
Operating hours: Remarks
Operating agency: Military
Timezone: UTC+1(+2DT) - Last Sunday in March to last Sunday in October
Fuel: N/A

Runway information:
06R/24L - 9931 x 74 feet< - >3027 x 23 meters
06L/24R - 9922 x 148 feet< - >3024 x 45 meters

Recent METARs:
EHVK 222002Z AUTO 16007KT 140V200 4200 BR FEW006 BKN007 OVC008 M01/M02 Q1001 BLACKGRN
EHVK 222026Z AUTO 16006KT 4600 BR SCT006 BKN007 OVC008 M01/M02 Q1000 BLACKYLO
EHVK 222055Z AUTO 17006KT 4700 BR FEW007 OVC010 M01/M02 Q1000 BLACKGRN

Airport on the map: